[[{"header":{"parameterUnit":"m.s-1","parameterCategory":1,"la1":30.2991,"la2":30.254,"lo1":-89.0895,"lo2":-89.0444,"dy":0.0017,"dx":0.0017,"nx":28,"ny":28,"refTime":"2025-06-22T21:00:00:Z","depth":0,"parameterNumber":2,"parameterNumberName":"U-component_of_WINDS"},"data":[0,0,0,0,0,0,0,0,0,0,0,0,0,0,0,0,0,0,0,0,0,0,0,0,0,0,0,0,0,0,0,0,0,0,0,0,0,0,0,0,0,0,0,0,0,0,0,0,0,0,0,0,0,0,0,0,0,0,0.7625,0.7624,0,0.7592,0.7592,0.7591,0.7586,0.7587,0.7587,0.7587,0.755,0.7549,0.7548,0,0,0,0,0,0,0,0,0,0,0,0,0,0.7678,0.7678,0.7625,0.7624,0.7624,0.7592,0.7592,0.7591,0.7586,0.7587,0.7587,0.7587,0.7551,0.7549,0.7548,0,0,0,0,0,0,0,0,0,0,0,0,0,0.7651,0.7677,0.7625,0.7618,0.7617,0.7592,0.7592,0.7591,0.7586,0.7587,0.7587,0.7587,0.7551,0.7549,0.7548,0.7527,0,0,0.7542,0.7541,0,0,0,0,0,0,0,0,0.7653,0.7649,0.7619,0.7618,0.7617,0.7594,0.7597,0.757,0.7586,0.7598,0.7587,0.7588,0.7564,0.7561,0.7554,0.7525,0.7524,0.7542,0.7541,0.754,0.7539,0,0,0,0,0,0,0,0.7655,0.7651,0.7612,0.7619,0.7617,0.7615,0.7611,0.7592,0.7579,0.7597,0.7596,0.7593,0.7564,0.7556,0.7553,0.7523,0.7542,0.754,0.7539,0.7538,0.7474,0.7473,0,0,0,0,0,0,0.7658,0.7652,0.7613,0.7611,0.7637,0.7613,0.761,0.7601,0.7579,0.7576,0.7592,0.7592,0.7559,0.7555,0.7552,0.7525,0.754,0.7538,0.7537,0.7474,0.7474,0.7473,0,0,0,0,0,0,0.766,0.7655,0.7614,0.7631,0.7626,0.7612,0.7602,0.76,0.7592,0.7576,0.7573,0.7587,0.7559,0.7555,0.7533,0.7524,0.7537,0.7535,0.7475,0.7474,0.7473,0.7472,0,0,0,0,0,0,0.7661,0.7655,0.7649,0.7631,0.7625,0.7597,0.7601,0.7599,0.7589,0.7589,0.757,0.7567,0.7559,0.7536,0.7531,0.7521,0.7534,0.7476,0.7475,0.7474,0.7473,0.7471,0.747,0,0,0,0,0,0.7663,0.7649,0.7648,0.7643,0.7616,0.7597,0.7593,0.7585,0.7589,0.7581,0.757,0.7568,0.7526,0.7534,0.7528,0.7518,0.7476,0.7475,0.7474,0.7474,0.7472,0.747,0,0,0,0,0,0,0.7664,0.7647,0.7646,0.7626,0.7613,0.7596,0.7586,0.7583,0.7568,0.7569,0.7558,0.7554,0.7533,0.7523,0.7532,0.7496,0.7501,0.7499,0.7503,0.7501,0.7499,0.7502,0.7532,0,0,0,0,0,0.7663,0.7649,0.7634,0.7618,0.7612,0.76,0.7591,0.7586,0.7571,0.7566,0.7553,0.7539,0.7522,0.7511,0.7495,0.7472,0.7466,0.7462,0.746,0.7459,0.7457,0.7442,0.744,0.7469,0.7469,0.7469,0,0,0.7658,0.7647,0.7639,0.7618,0.7607,0.7592,0.7595,0.7579,0.7567,0.7563,0.7542,0.7532,0.7515,0.7492,0.7482,0.7484,0.7448,0.7458,0.7457,0.7455,0.7441,0.7438,0.7435,0.7468,0.7468,0.7468,0,0,0.7643,0.7633,0.7618,0.7608,0.7592,0.7584,0.758,0.7564,0.7557,0.7536,0.7532,0.7517,0.7489,0.7477,0.7466,0.7445,0.7442,0.744,0.7432,0.7418,0.7415,0.7413,0.7404,0.7401,0.7438,0.7438,0.7438,0,0.7639,0.7617,0.7611,0.7595,0.7585,0.7581,0.7565,0.7554,0.7533,0.7526,0.7529,0.7493,0.7481,0.7455,0.7449,0.7442,0.7436,0.7442,0.7417,0.7414,0.7412,0.7403,0.74,0.7438,0.7438,0.7438,0.7438,0,0.7613,0.7598,0.7587,0.7568,0.7557,0.7541,0.753,0.752,0.7516,0.7507,0.7484,0.747,0.745,0.7444,0.744,0.7416,0.7418,0.7419,0.7424,0.7409,0.7401,0.7397,0.7437,0.7438,0.7438,0.7438,0,0,0.7596,0.7574,0.757,0.7561,0.7543,0.753,0.7513,0.7495,0.7485,0.7471,0.7455,0.7431,0.7432,0.742,0.7414,0.7402,0.7384,0.7404,0.7404,0.74,0.7356,0.7354,0.7351,0.7383,0.7382,0.7381,0.7357,0,0.7578,0.7549,0.7542,0.7516,0.7501,0.7497,0.7482,0.7469,0.746,0.7445,0.7435,0.7417,0.742,0.7413,0.7401,0.7389,0.7375,0.7391,0.7366,0.7365,0.7369,0.7346,0.7345,0.7322,0.7353,0.7353,0.7353,0,0.7552,0.7537,0.7511,0.7494,0.7487,0.7474,0.7456,0.7442,0.7426,0.742,0.7407,0.7402,0.7383,0.739,0.7362,0.7372,0.7362,0.7354,0.7353,0.735,0.7357,0.734,0.7315,0.7311,0.7347,0.7348,0.7348,0,0.7541,0.7515,0.7495,0.7488,0.7468,0.7458,0.7449,0.7434,0.7423,0.7407,0.7399,0.738,0.737,0.7355,0.7344,0.735,0.7316,0.7323,0.731,0.731,0.7302,0.7302,0.7273,0.7297,0.7297,0.7297,0.7297,0,0.752,0.7503,0.749,0.7478,0.7459,0.745,0.7431,0.7422,0.7408,0.7392,0.7388,0.7373,0.7361,0.7344,0.7335,0.7312,0.7308,0.7301,0.7299,0.7301,0.7302,0.7293,0.7294,0.7296,0.7297,0.7297,0.7297,0,0.7504,0.7495,0.7473,0.7456,0.7451,0.7437,0.7422,0.7409,0.74,0.7381,0.7376,0.7361,0.7341,0.7329,0.7304,0.7298,0.7272,0.7271,0.7278,0.7276,0.7263,0.7264,0.7226,0.722,0.725,0.725,0.725,0,0.7491,0.7478,0.7459,0.7449,0.744,0.7424,0.7413,0.7404,0.7392,0.7372,0.7361,0.7341,0.7324,0.7292,0.7278,0.7258,0.7256,0.7244,0.7253,0.7255,0.7254,0.7254,0.7252,0.7242,0.7242,0.7242,0.7241,0,0.7467,0.7463,0.7448,0.7431,0.7418,0.7403,0.7389,0.7381,0.7369,0.7356,0.7336,0.7323,0.7297,0.7276,0.7255,0.7244,0.724,0.7239,0.7235,0.7236,0.7239,0.7236,0.7272,0.724,0.724,0.724,0.724,0.724,0.7451,0.7439,0.7424,0.7407,0.7395,0.7382,0.7368,0.7358,0.7342,0.732,0.7316,0.7294,0.7277,0.7248,0.7236,0.7218,0.722,0.7214,0.7212,0.721,0.7209,0.7244,0.7214,0.7214,0.7214,0.7214,0.7214,0,0.7426,0.7416,0.7401,0.7381,0.7367,0.7366,0.735,0.7338,0.7319,0.7304,0.7288,0.7264,0.7243,0.7228,0.7207,0.7195,0.7192,0.7189,0.7189,0.7186,0.721,0.7215,0.7192,0.7192,0.7192,0.7192,0.7192,0.7192,0.7411,0.739,0.7384,0.7357,0.7347,0.7326,0.7317,0.7304,0.7292,0.7265,0.7249,0.7239,0.7223,0.7201,0.7182,0.7177,0.7169,0.7166,0.7161,0.7183,0.7185,0.7187,0.7192,0.7165,0.7165,0.7139,0.7139,0.7139]},{"header":{"parameterUnit":"m.s-1","parameterCategory":1,"la1":30.2991,"la2":30.254,"lo1":-89.0895,"lo2":-89.0444,"dy":0.0017,"dx":0.0017,"nx":28,"ny":28,"refTime":"2025-06-22T21:00:00:Z","depth":0,"parameterNumber":3,"parameterNumberName":"V-component_of_WINDS"},"data":[0,0,0,0,0,0,0,0,0,0,0,0,0,0,0,0,0,0,0,0,0,0,0,0,0,0,0,0,0,0,0,0,0,0,0,0,0,0,0,0,0,0,0,0,0,0,0,0,0,0,0,0,0,0,0,0,0,0,1.4134,1.4134,0,1.4183,1.4183,1.4184,1.4156,1.4155,1.4154,1.4152,1.4201,1.4204,1.4206,0,0,0,0,0,0,0,0,0,0,0,0,0,1.4014,1.4016,1.4134,1.4134,1.4135,1.4182,1.4183,1.4184,1.4157,1.4155,1.4153,1.4152,1.42,1.4203,1.4206,0,0,0,0,0,0,0,0,0,0,0,0,0,1.4065,1.4017,1.4134,1.4127,1.4127,1.4182,1.4183,1.4184,1.4157,1.4155,1.4153,1.4151,1.4199,1.4203,1.4207,1.4271,0,0,1.4219,1.422,0,0,0,0,0,0,0,0,1.4062,1.4069,1.4127,1.4128,1.4128,1.4161,1.4159,1.4213,1.4157,1.4146,1.4152,1.415,1.4189,1.4194,1.4208,1.4273,1.4275,1.4219,1.4221,1.4223,1.4224,0,0,0,0,0,0,0,1.4058,1.4067,1.4153,1.4128,1.4128,1.4121,1.4126,1.4169,1.4178,1.4146,1.4145,1.4151,1.4189,1.4204,1.4209,1.4276,1.4219,1.4222,1.4225,1.4226,1.4394,1.4396,0,0,0,0,0,0,1.4056,1.4064,1.4151,1.4154,1.4089,1.4125,1.413,1.4153,1.4178,1.418,1.4152,1.4149,1.4198,1.4204,1.421,1.4285,1.4223,1.4226,1.4229,1.4392,1.4394,1.4397,0,0,0,0,0,0,1.4053,1.4064,1.4149,1.4109,1.4119,1.4129,1.4154,1.4155,1.4169,1.4182,1.4184,1.4166,1.4197,1.4205,1.4256,1.4286,1.4228,1.4232,1.4389,1.4393,1.4396,1.4437,0,0,0,0,0,0,1.405,1.4063,1.4088,1.411,1.4121,1.4195,1.4156,1.4157,1.4176,1.4173,1.4195,1.4197,1.4196,1.425,1.4259,1.4291,1.4235,1.4387,1.4391,1.4395,1.4433,1.4441,1.4448,0,0,0,0,0,1.4046,1.4098,1.409,1.41,1.4153,1.4197,1.4204,1.4202,1.4179,1.4204,1.4211,1.4196,1.4282,1.4255,1.4266,1.4299,1.4385,1.439,1.4394,1.4429,1.4439,1.4448,0,0,0,0,0,0,1.4081,1.4101,1.4092,1.4153,1.4173,1.4192,1.4224,1.4213,1.424,1.4235,1.4231,1.4236,1.4289,1.4299,1.4269,1.4361,1.4329,1.4337,1.4352,1.4362,1.437,1.4366,1.4238,0,0,0,0,0,1.4096,1.413,1.4146,1.4198,1.4209,1.4214,1.4233,1.423,1.4251,1.4259,1.4271,1.4291,1.4322,1.4343,1.4372,1.4434,1.4437,1.4461,1.4469,1.4475,1.4481,1.4513,1.4523,1.4413,1.4413,1.4413,0,0,1.4127,1.4142,1.4164,1.4205,1.4221,1.4255,1.4222,1.4261,1.4286,1.4265,1.4313,1.4322,1.4344,1.44,1.4426,1.441,1.4512,1.4482,1.4487,1.4489,1.4519,1.4529,1.4538,1.4416,1.4415,1.4415,0,0,1.42,1.4216,1.4261,1.4276,1.43,1.4303,1.4313,1.4334,1.4339,1.4387,1.4372,1.4401,1.4455,1.4471,1.4486,1.4563,1.455,1.4573,1.4613,1.4644,1.4652,1.466,1.4686,1.4695,1.4579,1.4579,1.4579,0,1.4236,1.4288,1.4285,1.4324,1.4342,1.4324,1.4368,1.4383,1.4415,1.4427,1.441,1.4476,1.4489,1.4548,1.4566,1.458,1.459,1.457,1.4651,1.4659,1.4666,1.4691,1.4701,1.4582,1.4581,1.4581,1.4581,0,1.4329,1.4366,1.4398,1.4429,1.4451,1.4492,1.4494,1.4516,1.451,1.4514,1.4562,1.4578,1.4609,1.4623,1.4618,1.468,1.4669,1.4652,1.462,1.4679,1.4702,1.4712,1.4585,1.4585,1.4584,1.4583,0,0,1.4428,1.4455,1.4467,1.4479,1.4503,1.453,1.457,1.46,1.4618,1.4641,1.4673,1.4718,1.4701,1.4718,1.4714,1.4741,1.4799,1.472,1.472,1.4733,1.4866,1.4878,1.4889,1.479,1.4792,1.4793,1.4863,0,1.4502,1.4572,1.4569,1.4634,1.4666,1.4648,1.4682,1.47,1.4705,1.4732,1.4737,1.4768,1.4744,1.4754,1.478,1.4786,1.4825,1.4781,1.4818,1.482,1.4813,1.4902,1.4916,1.4981,1.4873,1.4874,1.4875,0,1.4599,1.4623,1.4691,1.4707,1.4721,1.4752,1.4778,1.4805,1.4823,1.4825,1.4843,1.4834,1.4872,1.484,1.4892,1.4862,1.4877,1.4882,1.4884,1.4887,1.4851,1.4906,1.5003,1.5012,1.489,1.4889,1.4888,0,1.4662,1.4712,1.4758,1.477,1.4791,1.4812,1.4822,1.4839,1.4856,1.4879,1.489,1.4917,1.4932,1.4953,1.4951,1.4928,1.5003,1.4971,1.5004,1.5004,1.502,1.5019,1.512,1.5031,1.5031,1.5031,1.5031,0,1.4745,1.4786,1.4786,1.4815,1.486,1.4856,1.4901,1.4908,1.4922,1.4951,1.4937,1.4964,1.4961,1.4987,1.4986,1.5028,1.5035,1.5036,1.5035,1.5037,1.5037,1.5046,1.5041,1.5034,1.5033,1.5033,1.5032,0,1.4823,1.4825,1.4874,1.4889,1.4894,1.4927,1.4939,1.4965,1.4968,1.5004,1.5012,1.5017,1.5047,1.5047,1.5082,1.5081,1.5132,1.5127,1.5126,1.5125,1.5157,1.5154,1.5267,1.5281,1.5185,1.5185,1.5186,0,1.4875,1.4907,1.4925,1.4943,1.4954,1.4983,1.5001,1.4997,1.5016,1.5038,1.5061,1.509,1.5113,1.5162,1.5168,1.5194,1.5188,1.5226,1.5192,1.5192,1.5187,1.5185,1.5187,1.5232,1.5233,1.5234,1.5235,0,1.4968,1.4966,1.4993,1.5019,1.504,1.506,1.5079,1.5094,1.5092,1.5113,1.5144,1.5162,1.5197,1.5225,1.525,1.5259,1.5246,1.5245,1.5254,1.5256,1.5254,1.5254,1.5143,1.5243,1.5242,1.5242,1.5241,1.5241,1.5034,1.506,1.5076,1.5105,1.5119,1.5136,1.516,1.5166,1.5192,1.522,1.5215,1.5249,1.5265,1.5296,1.5307,1.5333,1.5319,1.5333,1.5336,1.5339,1.5342,1.525,1.5337,1.5337,1.5337,1.5337,1.5337,0,1.5124,1.5133,1.516,1.5186,1.5208,1.5194,1.5213,1.5233,1.5263,1.5278,1.5301,1.5335,1.5362,1.5369,1.5395,1.5414,1.5408,1.542,1.5419,1.542,1.5353,1.5342,1.5424,1.5424,1.5424,1.5424,1.5424,1.5424,1.5174,1.5217,1.5217,1.5266,1.5275,1.5308,1.532,1.5335,1.5347,1.5386,1.5408,1.5412,1.5424,1.545,1.5473,1.5475,1.5484,1.5498,1.5497,1.5434,1.5425,1.5417,1.5407,1.5501,1.5501,1.5562,1.5563,1.5563]}]]